sat.trackr.live / text

‹ back to catalog

VIASAT-3 F3

NORAD 68893 · 2026-096A

PAYLOAD ACTIVE UNKNOWN

§ Identity

Operator
Country
US
Launch date
2026-04-29
Launch site
AFETR
Launch vehicle
Mass (kg)
RCS (m²)

External: N2YO · Heavens-Above · Gunter

§ Orbital elements

Epoch: 2026-05-22T12:09:50.638176Z

Period
1,142.15 min
Inclination
2.3429°
Eccentricity
0.1281813
Mean motion
1.26078027 rev/d
Perigee alt
25,176.9 km
Apogee alt
34,455.8 km
Semi-major
36,194.5 km
B*
0.0000e+0
RAAN
280.4148°
Arg perigee
181.0731°
Mean anomaly
252.6119°
Rev number
30

§ Raw data

VIASAT-3 F31 68893U 26096A   26142.50683609 -.00000123  00000+0  00000+0 0  99942 68893   2.3429 280.4148 1281813 181.0731 252.6119  1.26078027   300

JSON: /api/v1/satellites/68893 · /tle

For live sub-satellite position, see the globe view (requires WebGL).

§ Visibility from observer

Set your observer location to see the next 7 days of passes ≥ 10°. The values pass through the URL so the page stays shareable.

No JS? Fill the form by hand. The geolocation button needs JavaScript.